This demonstration page uses our WeatherBlox Daily Observations layout. Learn more.

Left ArrowRight Arrow

39.51506, -84.39828

Hourly Observations for May 16, 2016

Temp ( °F °C ) Dew Point ( °F °C ) Humidity (%) Winds ( mph kmh ) Pressure ( in mb ) Visibility ( mi km ) Precip ( " mm )
12:15 am 00:15 Clear 41 5 23 -4.8 50 50 undefined N/A 30.27 1025 10 16 N/A
12:35 am 00:35 Clear 40 4.4 26 -3.5 57 57 N 3 6 30.27 1025 10 16 N/A
12:55 am 00:55 Clear 39 4 30 -0.9 71 71 undefined N/A 30.27 1025 10 16 N/A
1:15 am 01:15 Clear 37 2.6 30 -1.3 76 76 undefined N/A 30.27 1025 10 16 N/A
1:35 am 01:35 Clear 37 2.6 29 -1.4 75 75 undefined N/A 30.27 1025 10 16 N/A
1:55 am 01:55 Clear 37 2.6 30 -1 77 77 undefined N/A 30.27 1025 10 16 N/A
2:15 am 02:15 Clear 37 2.5 31 -0.7 80 80 undefined N/A 30.27 1025 10 16 N/A
2:35 am 02:35 Clear 35 1.6 29 -1.5 80 80 undefined N/A 30.27 1025 10 16 N/A
2:55 am 02:55 Clear 37 2.6 31 -0.5 80 80 undefined N/A 30.27 1025 10 16 N/A
3:15 am 03:15 Clear 35 1.4 29 -1.6 81 81 undefined N/A 30.27 1025 10 16 N/A
3:35 am 03:35 Clear 34 1.2 29 -1.6 82 82 undefined N/A 30.27 1025 10 16 N/A
3:55 am 03:55 Clear 34 1.2 29 -1.5 82 82 undefined N/A 30.27 1025 10 16 N/A
4:15 am 04:15 Clear 34 1.2 29 -1.5 82 82 undefined N/A 30.27 1025 10 16 N/A
4:35 am 04:35 Clear 34 1.2 29 -1.5 82 82 undefined N/A 30.27 1025 10 16 N/A
4:55 am 04:55 Clear 34 1.2 29 -1.5 82 82 N N/A 30.27 1025 10 16 N/A
5:15 am 05:15 Clear 34 1.2 29 -1.4 83 83 N N/A 30.27 1025 10 16 N/A
5:35 am 05:35 Clear 34 1.2 30 -1.3 84 84 N N/A 30.27 1025 10 16 N/A
5:55 am 05:55 Clear 34 1.2 30 -1.2 84 84 N N/A 30.27 1025 10 16 N/A
6:15 am 06:15 Clear 34 1.2 30 -1.2 84 84 N N/A 30.27 1025 10 16 N/A
6:35 am 06:35 Sunny 34 1.2 30 -1.2 84 84 N N/A 30.30 1026 7 11 N/A
6:55 am 06:55 Sunny 34 1.2 30 -1.2 84 84 SW 3 6 30.30 1026 10 16 N/A
7:15 am 07:15 Sunny 37 2.5 32 -0.1 83 83 WSW 3 6 30.30 1026 10 16 N/A
7:35 am 07:35 Sunny 39 3.9 34 1 82 82 N N/A 30.30 1026 10 16 N/A
7:55 am 07:55 Sunny 40 4.6 34 0.9 77 77 undefined N/A 30.30 1026 10 16 N/A
8:15 am 08:15 Sunny 43 5.9 32 0.2 67 67 undefined N/A 30.30 1026 10 16 N/A
8:35 am 08:35 Sunny 44 6.5 32 -0.2 63 63 WSW 6 9 30.30 1026 10 16 N/A
8:55 am 08:55 Sunny 47 8.2 33 0.3 58 58 undefined N/A 30.30 1026 10 16 N/A
9:15 am 09:15 Sunny 49 9.6 33 0.7 54 54 undefined N/A 30.30 1026 10 16 N/A
9:35 am 09:35 Sunny 50 9.8 31 -0.8 48 48 undefined N/A 30.30 1026 10 16 N/A
9:55 am 09:55 Sunny 55 12.5 30 -1.3 39 39 undefined N/A 30.30 1026 10 16 N/A
10:15 am 10:15 Sunny 55 12.5 30 -1 40 40 SSW 8 13 30.30 1026 10 16 N/A
10:35 am 10:35 Sunny 55 12.5 28 -2.2 36 36 undefined N/A 30.30 1026 10 16 N/A
10:55 am 10:55 Sunny 57 13.8 28 -2.2 33 33 undefined N/A 30.30 1026 10 16 N/A
11:15 am 11:15 Sunny 57 13.8 24 -4.3 28 28 undefined N/A 30.27 1025 10 16 N/A
11:35 am 11:35 Sunny 57 13.8 21 -6.3 24 24 undefined N/A 30.27 1025 10 16 N/A
11:55 am 11:55 Sunny 60 15.3 20 -6.4 22 22 undefined N/A 30.27 1025 10 16 N/A
12:15 pm 12:15 Sunny 60 15.3 21 -5.9 23 23 undefined N/A 30.27 1025 10 16 N/A
12:35 pm 12:35 Sunny 60 15.3 21 -6.1 22 22 undefined N/A 30.27 1025 10 16 N/A
12:55 pm 12:55 Sunny 60 15.3 22 -5.7 23 23 undefined N/A 30.27 1025 10 16 N/A
1:15 pm 13:15 Sunny 60 15.3 20 -6.5 22 22 undefined N/A 30.27 1025 10 16 N/A
1:35 pm 13:35 Sunny 60 15.5 20 -6.9 21 21 WSW 9 15 30.24 1024 10 16 N/A
1:55 pm 13:55 Sunny 61 15.9 19 -7.2 20 20 undefined N/A 30.24 1024 10 16 N/A
2:15 pm 14:15 Sunny 62 16.4 19 -7.4 19 19 undefined N/A 30.24 1024 10 16 N/A
2:35 pm 14:35 Sunny 62 16.6 18 -7.6 18 18 SSW 7 11 30.24 1024 10 16 N/A
2:55 pm 14:55 Sunny 62 16.8 20 -6.4 20 20 undefined N/A 30.24 1024 10 16 N/A
3:15 pm 15:15 Sunny 63 17.2 20 -6.4 19 19 undefined N/A 30.24 1024 10 16 N/A
3:35 pm 15:35 Sunny 63 17.2 19 -7.4 18 18 undefined N/A 30.24 1024 10 16 N/A
3:55 pm 15:55 Sunny 64 18 23 -5 21 21 undefined N/A 30.21 1023 10 16 N/A
4:15 pm 16:15 Sunny 64 18 20 -6.4 18 18 SSW 6 9 30.18 1022 10 16 N/A
4:35 pm 16:35 Sunny 64 18 20 -6.4 18 18 SSW 9 15 30.18 1022 10 16 N/A
4:55 pm 16:55 Sunny 64 18 21 -6.1 19 19 undefined N/A 30.18 1022 10 16 N/A
5:15 pm 17:15 Sunny 64 18 20 -6.4 18 18 undefined N/A 30.18 1022 10 16 N/A
5:35 pm 17:35 Sunny 64 17.6 20 -6.7 19 19 undefined N/A 30.18 1022 10 16 N/A
5:55 pm 17:55 Sunny 63 17.3 18 -7.8 17 17 SSW 5 7 30.15 1021 10 16 N/A
6:15 pm 18:15 Sunny 62 16.7 20 -6.9 19 19 undefined N/A 30.18 1022 10 16 N/A
6:35 pm 18:35 Sunny 62 16.6 25 -4.1 24 24 NW 3 6 30.18 1022 10 16 N/A
6:55 pm 18:55 Sunny 61 16.1 32 -0.2 33 33 N 3 6 30.18 1022 10 16 N/A
7:15 pm 19:15 Partly Cloudy 61 16.1 31 -0.5 32 32 N N/A 30.18 1022 10 16 N/A
7:35 pm 19:35 Sunny 61 16 34 1.2 37 37 N N/A 30.18 1022 10 16 N/A
7:55 pm 19:55 Partly Cloudy 60 15.5 40 4.4 48 48 N N/A 30.18 1022 10 16 N/A
8:15 pm 20:15 Mostly Cloudy 60 15.3 41 5.1 51 51 N N/A 30.18 1022 10 16 N/A
8:35 pm 20:35 Mostly Cloudy 58 14.4 42 5.5 55 55 N N/A 30.18 1022 10 16 N/A
8:55 pm 20:55 Cloudy 57 13.8 40 4.6 54 54 N N/A 30.18 1022 10 16 N/A
9:15 pm 21:15 Mostly Cloudy 57 13.8 44 6.9 63 63 N N/A 30.18 1022 10 16 N/A
9:35 pm 21:35 Partly Cloudy 57 13.8 44 6.5 62 62 N N/A 30.18 1022 10 16 N/A
9:55 pm 21:55 Mostly Cloudy 57 13.8 45 7 64 64 undefined N/A 30.21 1023 10 16 N/A
10:15 pm 22:15 Mostly Cloudy 55 12.8 44 6.9 68 68 undefined N/A 30.21 1023 10 16 N/A
10:35 pm 22:35 Cloudy 55 12.5 46 7.9 74 74 N N/A 30.21 1023 10 16 N/A
10:55 pm 22:55 Cloudy 55 12.5 44 6.5 67 67 undefined N/A 30.21 1023 10 16 N/A
11:15 pm 23:15 Cloudy 55 12.5 44 6.8 68 68 SW 3 6 30.21 1023 10 16 N/A
11:35 pm 23:35 Cloudy 57 13.8 38 3.6 50 50 undefined N/A 30.21 1023 10 16 N/A
11:55 pm 23:55 Cloudy 56 13.2 43 5.9 62 62 undefined N/A 30.21 1023 10 16 N/A

Powered by AerisWeather